Satellite: ASTRA 1B
Catalog number: 21139
Epoch time:      103023.00000000
Element set:     158 
Inclination:        0.0122 deg
RA of node:       319.8851 deg
Eccentricity:    0.0002995
Arg of perigee:    65.1991 deg
Mean anomaly:     116.0459 deg
Mean motion:    1.00273184 rev/day
Decay rate:    1.2399E-006 rev/day^2
Epoch rev:            3192
Checksum:              241

Satellite: METEOSAT 5 (MO
Catalog number: 21140
Epoch time:      103025.68493630
Element set:     690 
Inclination:        5.5763 deg
RA of node:        70.1202 deg
Eccentricity:    0.0009230
Arg of perigee:   111.9931 deg
Mean anomaly:     251.9852 deg
Mean motion:    1.00268501 rev/day
Decay rate:    1.8000E-007 rev/day^2
Epoch rev:            4581
Checksum:              254

Satellite: NOAA 12
Catalog number: 21263
Epoch time:      103026.94572929
Element set:     950 
Inclination:       98.6237 deg
RA of node:        16.9602 deg
Eccentricity:    0.0013730
Arg of perigee:    87.0611 deg
Mean anomaly:     273.2139 deg
Mean motion:   14.25065014 rev/day
Decay rate:    3.2800E-006 rev/day^2
Epoch rev:           60799
Checksum:              298

Satellite: OSCAR 22 (UoSA
Catalog number: 21575
Epoch time:      103026.98131334
Element set:     725 
Inclination:       98.1384 deg
RA of node:        20.2448 deg
Eccentricity:    0.0006904
Arg of perigee:   195.0157 deg
Mean anomaly:     165.0825 deg
Mean motion:   14.39138420 rev/day
Decay rate:    3.4400E-006 rev/day^2
Epoch rev:           60503
Checksum:              395

Satellite: METEOR 3-5
Catalog number: 21655
Epoch time:      103026.95873126
Element set:     506 
Inclination:       82.5538 deg
RA of node:        54.8394 deg
Eccentricity:    0.0012298
Arg of perigee:   255.6106 deg
Mean anomaly:     104.3652 deg
Mean motion:   13.16979065 rev/day
Decay rate:    5.1000E-007 rev/day^2
Epoch rev:           55050
Checksum:              306

Satellite: UARS
Catalog number: 21701
Epoch time:      103027.47854095
Element set:     810 
Inclination:       56.9808 deg
RA of node:       121.4579 deg
Eccentricity:    0.0005357
Arg of perigee:   115.0442 deg
Mean anomaly:     245.1085 deg
Mean motion:   15.02811553 rev/day
Decay rate:    8.0199E-006 rev/day^2
Epoch rev:           62239
Checksum:              297

Satellite: EUTELSAT 2-F3
Catalog number: 21803
Epoch time:      103026.02195603
Element set:     512 
Inclination:        2.5422 deg
RA of node:        89.3713 deg
Eccentricity:    0.0004117
Arg of perigee:   184.7751 deg
Mean anomaly:     240.1243 deg
Mean motion:    1.00271213 rev/day
Decay rate:    1.2799E-006 rev/day^2
Epoch rev:            3676
Checksum:              255

Satellite: INMARSAT 2-F3
Catalog number: 21814
Epoch time:      103023.23098649
Element set:     606 
Inclination:        1.6925 deg
RA of node:        57.0055 deg
Eccentricity:    0.0002504
Arg of perigee:   251.0488 deg
Mean anomaly:     115.2894 deg
Mean motion:    1.00276699 rev/day
Decay rate:    1.1399E-006 rev/day^2
Epoch rev:            4063
Checksum:              288

Satellite: INMARSAT 2-F4
Catalog number: 21940
Epoch time:      103027.10714674
Element set:     566 
Inclination:        2.3697 deg
RA of node:        19.1309 deg
Eccentricity:    0.0001839
Arg of perigee:   267.5415 deg
Mean anomaly:     346.8359 deg
Mean motion:    1.00269578 rev/day
Decay rate:   -3.5499E-006 rev/day^2
Epoch rev:            3945
Checksum:              326

Satellite: EUTELSAT 2-F4
Catalog number: 22028
Epoch time:      103026.95332737
Element set:     323 
Inclination:        1.6623 deg
RA of node:        92.8757 deg
Eccentricity:    0.0005855
Arg of perigee:   212.1692 deg
Mean anomaly:     151.6631 deg
Mean motion:    1.00272096 rev/day
Decay rate:   -1.0100E-006 rev/day^2
Epoch rev:            3155
Checksum:              370

Satellite: OSCAR 23 (KITS
Catalog number: 22077
Epoch time:      103027.56618433
Element set:     150 
Inclination:       66.0807 deg
RA of node:       171.8026 deg
Eccentricity:    0.0015263
Arg of perigee:   279.8193 deg
Mean anomaly:      80.1102 deg
Mean motion:   12.86407828 rev/day
Decay rate:   -3.7000E-007 rev/day^2
Epoch rev:           49147
Checksum:              295

Satellite: ASTRA 1C
Catalog number: 22653
Epoch time:      103023.00000000
Element set:     784 
Inclination:        0.0122 deg
RA of node:       319.8851 deg
Eccentricity:    0.0002995
Arg of perigee:    65.1991 deg
Mean anomaly:     116.0096 deg
Mean motion:    1.00273184 rev/day
Decay rate:    1.2299E-006 rev/day^2
Epoch rev:            3062
Checksum:              240

Satellite: METEOR 2-21
Catalog number: 22782
Epoch time:      103027.47718497
Element set:     502 
Inclination:       82.5460 deg
RA of node:       232.4171 deg
Eccentricity:    0.0023447
Arg of perigee:    49.9627 deg
Mean anomaly:     310.3602 deg
Mean motion:   13.83530473 rev/day
Decay rate:    4.8999E-007 rev/day^2
Epoch rev:           47503
Checksum:              418

Satellite: KITSAT B
Catalog number: 22825
Epoch time:      103027.55548826
Element set:     472 
Inclination:       98.2760 deg
RA of node:        58.3717 deg
Eccentricity:    0.0008044
Arg of perigee:   331.2303 deg
Mean anomaly:      28.8435 deg
Mean motion:   14.28935051 rev/day
Decay rate:    1.4099E-006 rev/day^2
Epoch rev:           48673
Checksum:              422

Satellite: POSAT 1
Catalog number: 22826
Epoch time:      103026.67904129
Element set:     306 
Inclination:       98.2777 deg
RA of node:        58.6444 deg
Eccentricity:    0.0009003
Arg of perigee:   333.0077 deg
Mean anomaly:      27.0631 deg
Mean motion:   14.29157198 rev/day
Decay rate:    1.7400E-006 rev/day^2
Epoch rev:           48665
Checksum:              307

Satellite: ITAMSAT
Catalog number: 22828
Epoch time:      103026.66483777
Element set:     411 
Inclination:       98.2742 deg
RA of node:        58.8962 deg
Eccentricity:    0.0009694
Arg of perigee:   310.9813 deg
Mean anomaly:      49.0522 deg
Mean motion:   14.29500544 rev/day
Decay rate:    1.4299E-006 rev/day^2
Epoch rev:           45485
Checksum:              439

Satellite: EYESAT A
Catalog number: 22829
Epoch time:      103027.51794831
Element set:     435 
Inclination:       98.2762 deg
RA of node:        60.3006 deg
Eccentricity:    0.0009413
Arg of perigee:   309.1273 deg
Mean anomaly:      50.9077 deg
Mean motion:   14.29756831 rev/day
Decay rate:    2.2799E-006 rev/day^2
Epoch rev:           48690
Checksum:              323

Satellite: METEOSAT 6
Catalog number: 22912
Epoch time:      103026.02271992
Element set:     653 
Inclination:        2.6211 deg
RA of node:        82.5100 deg
Eccentricity:    0.0000887
Arg of perigee:   242.2896 deg
Mean anomaly:     177.6309 deg
Mean motion:    1.00275496 rev/day
Decay rate:    6.1999E-007 rev/day^2
Epoch rev:            3206
Checksum:              293

Satellite: GOES 8
Catalog number: 23051
Epoch time:      103021.37144942
Element set:     570 
Inclination:        0.2308 deg
RA of node:       105.6780 deg
Eccentricity:    0.0002388
Arg of perigee:   196.5117 deg
Mean anomaly:     236.1092 deg
Mean motion:    1.00257460 rev/day
Decay rate:   -2.4099E-006 rev/day^2
Epoch rev:            3952
Checksum:              269

Satellite: ASTRA 1D
Catalog number: 23331
Epoch time:      103026.05837964
Element set:     806 
Inclination:        0.0597 deg
RA of node:       230.8174 deg
Eccentricity:    0.0003549
Arg of perigee:    58.1812 deg
Mean anomaly:     241.1087 deg
Mean motion:    1.00271596 rev/day
Decay rate:    1.4099E-006 rev/day^2
Epoch rev:            3063
Checksum:              383

Satellite: RADIO ROSTO
Catalog number: 23439
Epoch time:      103026.49973008
Element set:     690 
Inclination:       64.8183 deg
RA of node:        78.7905 deg
Eccentricity:    0.0147688
Arg of perigee:   119.8405 deg
Mean anomaly:     241.7310 deg
Mean motion:   11.27547844 rev/day
Decay rate:   -4.1999E-007 rev/day^2
Epoch rev:           33299
Checksum:              349

Satellite: NOAA 14
Catalog number: 23455
Epoch time:      103026.96108776
Element set:     504 
Inclination:       99.1878 deg
RA of node:        44.9336 deg
Eccentricity:    0.0008771
Arg of perigee:   295.6644 deg
Mean anomaly:      64.3621 deg
Mean motion:   14.13288416 rev/day
Decay rate:    1.2100E-006 rev/day^2
Epoch rev:           41628
Checksum:              319

Satellite: HIMAWARI 5 (GM
Catalog number: 23522
Epoch time:      103027.04774986
Element set:     72 
Inclination:        1.7138 deg
RA of node:        83.7317 deg
Eccentricity:    0.0000527
Arg of perigee:    61.1980 deg
Mean anomaly:     138.2124 deg
Mean motion:    1.00265252 rev/day
Decay rate:   -2.8399E-006 rev/day^2
Epoch rev:            2866
Checksum:              292

Satellite: HOT BIRD 1
Catalog number: 23537
Epoch time:      103013.80550721
Element set:     533 
Inclination:        0.0070 deg
RA of node:       236.2796 deg
Eccentricity:    0.0008090
Arg of perigee:    86.9786 deg
Mean anomaly:      92.5958 deg
Mean motion:    1.00275871 rev/day
Decay rate:    1.0700E-006 rev/day^2
Epoch rev:            2861
Checksum:              279

Satellite: GOES 9
Catalog number: 23581
Epoch time:      103023.50271815
Element set:     485 
Inclination:        0.3407 deg
RA of node:       277.1085 deg
Eccentricity:    0.0009716
Arg of perigee:   237.0409 deg
Mean anomaly:      13.2476 deg
Mean motion:    1.00032846 rev/day
Decay rate:    1.1299E-006 rev/day^2
Epoch rev:            2810
Checksum:              376

